User: anonymous   Login
Location: ??
(35.5052°N, 139.7262°E)
Time: 20:18:51
(UTC+00:00)
Language:

FENGYUN 1C DEB - Orbit

View from above orbital plane
View from above orbital plane
View from above satellite
View from above satellite

Ground track
Ground track

The orbit data is extracted from the following two-line orbital elements,

1 37703U 99025ELU 22011.89071969  .00001007  00000-0  42937-3 0  9996
2 37703  99.1192 249.0982 0055509 163.8181 259.9831 14.26643540673445
Epoch (UTC): 11 January 2022 21:22:38
Eccentricity: 0.0055509
inclination: 99.1192°
perigee height: 763 km
apogee height: 843 km
right ascension of ascending node: 249.0982°
argument of perigee: 163.8181°
revolutions per day: 14.26643540
mean anomaly at epoch: 259.9831°
orbit number at epoch: 67344

The dashed part of the orbit path shows where the satellite is in the earth's shadow,  

DLR